This demonstration page uses our WeatherBlox Daily Observations layout. Learn more.

Left ArrowRight Arrow

Hourly Observations for March 25, 2019

Temp ( °F °C ) Dew Point ( °F °C ) Humidity (%) Winds ( mph kmh ) Pressure ( in mb ) Visibility ( mi km ) Precip ( " mm )
12:51 am 00:51 Clear 48 8.9 29 -1.7 48 48 NW 6 9 30.09 1019 10 16 N/A
1:51 am 01:51 Clear 44 6.7 29 -1.7 55 55 N N/A 30.10 1019 10 16 N/A
2:51 am 02:51 Clear 47 8.3 29 -1.7 50 50 N N/A 30.09 1019 10 16 N/A
3:51 am 03:51 Clear 41 5 29 -1.7 62 62 S 5 7 30.10 1019 10 16 N/A
4:51 am 04:51 Clear 39 3.9 29 -1.7 67 67 N N/A 30.11 1020 10 16 N/A
5:51 am 05:51 Clear 38 3.3 29 -1.7 70 70 SE 3 6 30.13 1020 10 16 N/A
6:51 am 06:51 Sunny 40 4.4 29 -1.7 65 65 N N/A 30.15 1021 10 16 N/A
7:51 am 07:51 Sunny 51 10.6 31 -0.6 46 46 N N/A 30.14 1021 10 16 N/A
8:51 am 08:51 Sunny 56 13.3 30 -1.1 37 37 N N/A 30.16 1021 10 16 N/A
9:51 am 09:51 Sunny 65 18.3 28 -2.2 25 25 SE 7 11 30.14 1021 10 16 N/A
10:51 am 10:51 Sunny 68 20 27 -2.8 21 21 VRB 5 7 30.12 1020 10 16 N/A
11:51 am 11:51 Sunny 72 22.2 27 -2.8 19 19 SSE 7 11 30.10 1019 10 16 N/A
12:51 pm 12:51 Sunny 76 24.4 26 -3.3 16 16 ESE 8 13 30.06 1018 10 16 N/A
1:51 pm 13:51 Sunny 80 26.7 21 -6.1 11 11 SE 9 15 30.03 1017 10 16 N/A
2:51 pm 14:51 Sunny 79 26.1 17 -8.3 10 10 N N/A 29.98 1015 10 16 N/A
3:51 pm 15:51 Sunny 80 26.7 17 -8.3 9 9 SW 6 9 29.98 1015 10 16 N/A
4:51 pm 16:51 Sunny 80 26.7 15 -9.4 8 8 SSW 3 6 29.97 1015 10 16 N/A
5:51 pm 17:51 Sunny 79 26.1 17 -8.3 10 10 SSE 3 6 29.97 1015 10 16 N/A
6:51 pm 18:51 Clear 72 22.2 17 -8.3 12 12 N N/A 29.98 1015 10 16 N/A
7:51 pm 19:51 Clear 63 17.2 25 -3.9 24 24 VRB 3 6 29.99 1016 10 16 N/A
8:51 pm 20:51 Clear 61 16.1 24 -4.4 24 24 ESE 8 13 30.00 1016 10 16 N/A
9:51 pm 21:51 Clear 58 14.4 24 -4.4 27 27 ESE 6 9 29.99 1016 10 16 N/A
10:51 pm 22:51 Clear 57 13.9 25 -3.9 29 29 SE 3 6 29.98 1015 10 16 N/A
11:51 pm 23:51 Clear 56 13.3 24 -4.4 29 29 ESE 8 13 29.97 1015 10 16 N/A

Powered by AerisWeather